loading
|

THOR ABLESTAR DEB, 561

Orbit data source: Space-Track

THOR ABLESTAR DEB, 561 is space debris in LEO originally from a launch on Thu, 29 Jun 1961 UTC launched from the Air Force Eastern Test Range (AFETR). Debris objects in space refer to the collection of defunct objects orbiting the Earth. Examples of debris include non-operational satellites, rocket bodies, and fragments generated from explosions, collisions, or faulty payload assembly.

Loading next visibility...
Loading greatness...
THOR ABLESTAR DEB details
Identifier
561, 1961-015GT
Orbit
LEO
Last TLE update1 day ago
Origin
Flag of USUSAF SSD (US)
ManufacturerUnknown
Mission statusUnknown
MissionUnknown
Bus & MotorUnknown
MassUnknown
Launch date (UTC)
1961-06-29 (63 years ago)
Launch vehicleUnknown
Launch site
Air Force Eastern Test Range (AFETR)
Object type
Payload
Rocket body
Debris
Radar Cross SectionMedium (>0.1 m² and <1 m²)

Expand to show TLE details & history

TLE from 1 day ago
0 THOR ABLESTAR DEB
1 00561U 61015GT  24250.60424331  .00000544  00000-0  21952-2 0  9995
2 00561  67.7541  70.4312 0626441  20.4175  35.9530 12.40969092860633
Epoch: 2024-09-06T14:30Z
Definitive object data (Epoch: 2024-09-06T14:30:06.621Z)
Latitude54.06021°
Longitude-99.12423°
Altitude1,122.453 km
Speed7.474 km/s
True Right ascension06h 58m 18s
True Declination53° 54' 17"
Sunlit
Object was in daylight at TLE epoch
Predictive object data (real-time)
Latitude2.06639°
Longitude-134.4529°
Altitude1,030.348 km
Speed7.554 km/s
Apparent Right ascension02h 04m 01s
Apparent Declination-26° 45' 49"
Sunlit
Object is in daylight
Predictive observer data (real-time)
Local Sidereal Time09:26:45
Azimuth260.285° W
Elevation-32.062°
Doppler factor1
Orbital elements
Apogee1,994.476 km
Perigee1,007.325 km
Semi-major axis7,879.038 km
Eccentricity0.0626441
Inclination67.7541°
RAAN70.4312°
Arg. of periapsis20.4175°
True anomaly40.44739°
Mean anomaly35.953°
Eccentric anomaly38.1712°
Mean motion3.10337 °/min
BSTAR0.0021952
Period116 mins
No data available

THOR ABLESTAR DEB Visibility forecast

Observer location: 39.9160978°, -105.1181434

THOR ABLESTAR DEB is not visible in the next 10 days
Span
Click to sort rows by Start time (UTC) header in descending order
Start Az.
Max El. time (UTC)
Max El. Az.
Max El.
End time (UTC)
End Az.